MAKERSAT 0

Last updated on Thu Nov 21 2024 00:03:40 GMT+0000 (Coordinated Universal Time)

1 43016U 17073D 24324.63135449 .00018889 00000+0 92422-3 0 9997 2 43016 97.5449 199.7437 0174287 114.4437 247.5082 15.05804245379244
UTC large
Height (km)
Speed (km/s)
/
Latitude / Longitude
Inclination (degrees)
Orbital Period (minutes)
Azimuth
Elevation
Range (km)
Doppler Factor

Next 0 passes for location: London (51.5072 / 0.1276)

Sorry there are no passes over London.